Laconia, NH

10:58 AM EDT on June 23, 2018 (GMT -0400)
Laconia Municipal

Weather History for KLCI - November, 2016

Change the Weather History Date:

Saturday, November 12, 2016

  Actual Average Record
Temperature  
Mean Temperature 37 °F -  
Max Temperature 44 °F 47 °F 66 °F (2012)
Min Temperature 30 °F 33 °F 19 °F (1999)
Degree Days  
Heating Degree Days 28    
Moisture  
Dew Point 19 °F    
Average Humidity 48    
Maximum Humidity 59    
Minimum Humidity 37    
Precipitation  
Precipitation 0.00 in - - ()
Sea Level Pressure  
Sea Level Pressure 30.15 in    
Wind  
Wind Speed 9 mph (WSW)    
Max Wind Speed 15 mph    
Max Gust Speed 22 mph    
Visibility 10 miles    
Events      
Averages and records for this station are not official NWS values.
T = Trace of Precipitation, MM = Missing Value Source: NWS Daily Summary

Daily Weather History Graph

Daily Weather History Graph

Search for Another Location

Airport or City:

Astronomy

Nov. 12, 2016 Rise Set
Actual Time 6:36 AM EST 4:23 PM EST
Civil Twilight 6:05 AM EST 4:53 PM EST
Nautical Twilight 5:31 AM EST 5:28 PM EST
Astronomical Twilight 4:57 AM EST 6:01 PM EST
Moon 3:34 PM EST (11/12) 3:49 AM EST (11/12)
Length of Visible Light 10h 48m
Length of Day
9h 46m
Waxing Gibbous, 95% of the Moon is Illuminated
Nov 12
Waxing Gibbous
Nov 14
Full
Nov 21
Last Quarter
Nov 29
New
Dec 7
First Quarter

Hourly Weather History & Observations

Time (EST) Temp. Windchill Dew Point Humidity Pressure Visibility Wind Dir Wind Speed Gust Speed Precip Events Conditions
12:56 AM 33.1 °F 25.5 °F 15.1 °F 48% 30.12 in 10.0 mi WNW 9.2 mph 18.4 mph N/A   Clear
1:56 AM 32.0 °F 21.6 °F 15.1 °F 50% 30.14 in 10.0 mi WNW 15.0 mph 21.9 mph N/A   Clear
2:56 AM 32.0 °F 27.5 °F 17.1 °F 54% 30.15 in 10.0 mi West 4.6 mph 19.6 mph N/A   Clear
3:56 AM 32.0 °F 28.7 °F 17.1 °F 54% 30.17 in 10.0 mi Variable 3.5 mph 17.3 mph N/A   Clear
4:56 AM 30.9 °F 25.2 °F 17.1 °F 57% 30.18 in 10.0 mi West 5.8 mph - N/A   Clear
5:56 AM 30.9 °F 23.5 °F 18.0 °F 59% 30.20 in 10.0 mi WSW 8.1 mph - N/A   Clear
6:56 AM 30.9 °F 25.2 °F 18.0 °F 59% 30.22 in 10.0 mi WSW 5.8 mph - N/A   Clear
7:56 AM 33.1 °F 27.7 °F 17.1 °F 52% 30.24 in 10.0 mi Variable 5.8 mph - N/A   Clear
9:56 AM 37.9 °F 32.1 °F 17.1 °F 43% 30.25 in 10.0 mi West 8.1 mph 19.6 mph N/A   Clear
10:56 AM 39.9 °F 34.5 °F 17.1 °F 40% 30.25 in 10.0 mi West 8.1 mph 18.4 mph N/A   Clear
11:56 AM 41.0 °F 33.5 °F 19.0 °F 41% 30.21 in 10.0 mi West 13.8 mph - N/A   Clear
12:56 PM 42.1 °F 36.6 °F 18.0 °F 38% 30.19 in 10.0 mi West 9.2 mph - N/A   Clear
1:56 PM 44.1 °F 37.7 °F 19.9 °F 38% 30.16 in 10.0 mi SW 12.7 mph - N/A   Clear
2:56 PM 44.1 °F 37.7 °F 19.9 °F 38% 30.15 in 10.0 mi WSW 12.7 mph - N/A   Clear
3:56 PM 44.1 °F 37.7 °F 19.0 °F 37% 30.13 in 10.0 mi West 12.7 mph - N/A   Clear
4:56 PM 41.0 °F 36.4 °F 19.9 °F 43% 30.11 in 10.0 mi SW 6.9 mph - N/A   Clear
5:56 PM 42.1 °F 36.6 °F 19.9 °F 41% 30.11 in 10.0 mi West 9.2 mph - N/A   Clear
6:56 PM 39.9 °F 32.1 °F 19.9 °F 45% 30.09 in 10.0 mi WSW 13.8 mph - N/A   Clear
7:56 PM 39.0 °F 32.3 °F 21.0 °F 49% 30.09 in 10.0 mi SW 10.4 mph - N/A   Clear
8:56 PM 39.9 °F 33.9 °F 23.0 °F 51% 30.08 in 10.0 mi WSW 9.2 mph - N/A   Clear
9:56 PM 39.9 °F 33.4 °F 23.0 °F 51% 30.05 in 10.0 mi WSW 10.4 mph - N/A   Clear
10:56 PM 39.9 °F 33.9 °F 24.1 °F 53% 30.03 in 10.0 mi SW 9.2 mph - N/A   Clear
11:56 PM 39.9 °F 35.8 °F 24.1 °F 53% 30.03 in 10.0 mi WSW 5.8 mph - N/A   Clear